Beaufort, NC

2:51 PM EDT on August 18, 2017 (GMT -0400)
Smith

Weather History for KMRH - January, 2013

Change the Weather History Date:

Tuesday, January 29, 2013

  Actual Average Record
Temperature  
Mean Temperature 56 °F -  
Max Temperature 64 °F 55 °F 72 °F (1974)
Min Temperature 48 °F 34 °F 16 °F (1971)
Degree Days  
Heating Degree Days 9    
Growing Degree Days 6 (Base 50)    
Moisture  
Dew Point 53 °F    
Average Humidity 94    
Maximum Humidity 100    
Minimum Humidity 73    
Precipitation  
Precipitation 0.01 in - - ()
Sea Level Pressure  
Sea Level Pressure 30.21 in    
Wind  
Wind Speed 6 mph (SW)    
Max Wind Speed 13 mph    
Max Gust Speed -    
Visibility 4 miles    
Events Fog    
Averages and records for this station are not official NWS values.
T = Trace of Precipitation, MM = Missing Value Source: NWS Daily Summary

Daily Weather History Graph

Daily Weather History Graph

Search for Another Location

Airport or City:

Trip Planner

Search our weather history database for the weather conditions in past years. The results will help you decide how hot, cold, wet, or windy it might be!

Date:

Astronomy

Jan. 29, 2013 Rise Set
Actual Time 7:06 AM EST 5:33 PM EST
Civil Twilight 6:40 AM EST 5:59 PM EST
Nautical Twilight 6:09 AM EST 6:30 PM EST
Astronomical Twilight 5:40 AM EST 6:59 PM EST
Moon 8:17 PM EST (1/29) 8:10 AM EST (1/29)
Length of Visible Light 11h 19m
Length of Day
10h 26m
Waning Gibbous, 94% of the Moon is Illuminated
Jan 29
Waning Gibbous
Feb 3
Last Quarter
Feb 10
New
Feb 17
First Quarter
Feb 25
Full

Hourly Weather History & Observations

Time (EST) Temp. Dew Point Humidity Pressure Visibility Wind Dir Wind Speed Gust Speed Precip Events Conditions
12:58 AM 51.1 °F 51.1 °F 100% 30.25 in 0.2 mi SW 4.6 mph - N/A Fog Fog
1:46 AM 51.8 °F 51.8 °F 100% 30.24 in 1.2 mi WSW 4.6 mph - N/A   Overcast
1:52 AM 51.8 °F 51.8 °F 100% 30.24 in 3.0 mi WSW 4.6 mph - 0.01 in   Overcast
1:58 AM 51.1 °F 51.1 °F 100% 30.24 in 4.0 mi WSW 5.8 mph - 0.01 in   Mostly Cloudy
2:08 AM 51.8 °F 51.8 °F 100% 30.24 in 6.0 mi WSW 5.8 mph - N/A   Scattered Clouds
2:23 AM 53.6 °F 51.8 °F 94% 30.24 in 1.8 mi WSW 8.1 mph - N/A   Mostly Cloudy
2:30 AM 53.6 °F 51.8 °F 94% 30.23 in 0.8 mi WSW 6.9 mph - N/A   Mostly Cloudy
2:58 AM 52.0 °F 52.0 °F 100% 30.24 in 0.5 mi WSW 5.8 mph - N/A Fog Fog
3:40 AM 50.0 °F 50.0 °F 100% 30.23 in 1.0 mi WSW 4.6 mph - N/A   Overcast
3:47 AM 50.0 °F 48.2 °F 94% 30.22 in 1.2 mi SW 5.8 mph - N/A   Overcast
3:58 AM 50.0 °F 50.0 °F 100% 30.22 in 0.8 mi SW 5.8 mph - N/A   Mist
4:58 AM 48.9 °F 48.9 °F 100% 30.22 in 0.2 mi SW 8.1 mph - N/A Fog Fog
5:45 AM 50.0 °F 50.0 °F 100% 30.22 in 1.0 mi WSW 5.8 mph - N/A   Mist
5:49 AM 50.0 °F 50.0 °F 100% 30.22 in 1.2 mi WSW 4.6 mph - N/A   Overcast
5:58 AM 50.0 °F 50.0 °F 100% 30.22 in 1.5 mi WSW 4.6 mph - N/A   Overcast
6:10 AM 48.2 °F 48.2 °F 100% 30.22 in 2.5 mi SW 5.8 mph - N/A   Mostly Cloudy
6:18 AM 48.2 °F 48.2 °F 100% 30.22 in 1.5 mi SW 4.6 mph - N/A   Scattered Clouds
6:30 AM 48.2 °F 48.2 °F 100% 30.22 in 3.0 mi WSW 4.6 mph - N/A   Clear
6:58 AM 48.9 °F 48.0 °F 97% 30.23 in 3.0 mi WSW 4.6 mph - N/A   Clear
7:58 AM 51.1 °F 51.1 °F 100% 30.24 in 4.0 mi WSW 5.8 mph - N/A   Clear
8:58 AM 55.9 °F 53.1 °F 90% 30.23 in 5.0 mi WSW 8.1 mph - N/A   Clear
9:58 AM 60.1 °F 55.0 °F 83% 30.24 in 7.0 mi SW 9.2 mph - N/A   Clear
10:58 AM 62.1 °F 54.0 °F 75% 30.23 in 7.0 mi SW 8.1 mph - N/A   Clear
11:58 AM 63.0 °F 55.0 °F 75% 30.20 in 8.0 mi SW 10.4 mph - N/A   Clear
12:58 PM 64.9 °F 55.9 °F 73% 30.17 in 8.0 mi SW 11.5 mph - N/A   Clear
1:58 PM 63.0 °F 55.9 °F 78% 30.15 in 7.0 mi SW 11.5 mph - N/A   Clear
2:58 PM 63.0 °F 57.0 °F 81% 30.14 in 8.0 mi SW 10.4 mph - N/A   Clear
3:58 PM 62.1 °F 57.0 °F 84% 30.16 in 8.0 mi SW 11.5 mph - N/A   Clear
4:58 PM 60.1 °F 57.0 °F 90% 30.15 in 7.0 mi SW 12.7 mph - N/A   Clear
5:58 PM 57.9 °F 57.0 °F 97% 30.16 in 7.0 mi SW 8.1 mph - N/A   Clear
6:58 PM 55.9 °F 55.9 °F 100% 30.16 in 5.0 mi SSW 4.6 mph - N/A   Clear
7:58 PM 57.9 °F 57.0 °F 97% 30.16 in 6.0 mi SSW 6.9 mph - N/A   Clear
8:58 PM 57.0 °F 57.0 °F 100% 30.16 in 3.0 mi SSW 8.1 mph - N/A   Clear
9:58 PM 57.9 °F 57.0 °F 97% 30.16 in 4.0 mi SSW 8.1 mph - N/A   Clear
10:58 PM 57.9 °F 57.9 °F 100% 30.16 in 5.0 mi SW 8.1 mph - N/A   Clear
11:58 PM 57.0 °F 57.0 °F 100% 30.16 in 4.0 mi SSW 8.1 mph - N/A   Clear